Tacoma, WA
on Saturday, November 3, 2012

Saturday
Previous Day Next Day
Daily Summary
 ActualAverage (KSEA)Record (KSEA)
Temperature
Mean Temperature °F 48°F  
Max Temperature 60°F 54°F 74°F (2010)
Min Temperature 51°F 43°F 29°F (1953)
Degree Days
Heating Degree Days 10 17  
Month to date heating degree days 50  
Since 1 July heating degree days 647  
Cooling Degree Days 0 0  
Month to date cooling degree days 0  
Year to date cooling degree days 189  
Growing Degree Days6 (Base °F )  
Moisture
Dew Point 53°F   
Average Humidity 94    
Maximum Humidity 100    
Minimum Humidity 77    
Precipitation
Precipitation 0.02 in 0.20 in 1.37 in (1971)
Month to date precipitation 0.58  
Year to date precipitation 26.15  
Snow
Snow 0.00 in in 0.20 in (1973)
Month to date snowfall  
Since 1 July snowfall  
Snow Depth in   
Wind
Wind Speed 4 mph   
Max Wind Speed 18 mph   
Max Gust Speed 23 mph   
Visibility 9 miles   
Events Rain   

Key: T is trace of precipitation, MM is missing value
Source: NWS Daily Summary
Time(PDT)TemperatureDew PointHumidity Pressure Visibility Wind DirectionWind SpeedGust SpeedPrecipitationEvents Conditions
12:07 AM 53.6°F 51.8°F 94% 29.98 in 5.0 miles Calm Calm - N/A Rain Light Rain
12:09 AM 53.6°F 51.8°F 94% 29.98 in 5.0 miles Calm Calm - N/A   Overcast
12:13 AM 53.6°F 51.8°F 94% 29.98 in 5.0 miles North 2.3 mph - N/A Rain Light Rain
12:23 AM 51.8°F 51.8°F 100% 29.98 in 5.0 miles WNW 2.3 mph - N/A   Overcast
12:33 AM 53.6°F 51.8°F 94% 29.98 in 4.0 miles Calm Calm - N/A Rain Light Rain
12:54 AM 53.6°F 51.8°F 94% 29.97 in 8.0 miles WNW 3.5 mph - N/A   Overcast
12:58 AM 52.7°F 52.5°F 99% 29.99 in 8.0 miles NNW 4.6 mph - 0.00 in   Overcast
1:18 AM 51.8°F 51.8°F 100% 29.98 in 7.0 miles Calm Calm - N/A Rain Light Rain
1:32 AM 51.8°F 51.8°F 100% 29.98 in 8.0 miles Variable 1.2 mph - N/A   Overcast
1:42 AM 51.8°F 51.8°F 100% 29.98 in 8.0 miles SE 2.3 mph - N/A   Overcast
1:47 AM 51.8°F 51.8°F 100% 29.98 in 7.0 miles SE 2.3 mph - N/A   Overcast
1:58 AM 52.2°F 52.0°F 99% 29.99 in 5.0 miles SE 2.3 mph - 0.00 in   Overcast
2:19 AM 51.8°F 51.8°F 100% 29.98 in 5.0 miles ESE 2.3 mph - N/A   Overcast
2:39 AM 51.8°F 51.8°F 100% 29.98 in 6.0 miles Calm Calm - N/A   Overcast
2:44 AM 51.8°F 51.8°F 100% 29.98 in 6.0 miles SE 1.2 mph - N/A   Overcast
2:51 AM 51.8°F 51.8°F 100% 29.98 in 5.0 miles SE 3.5 mph - N/A Rain Light Rain
2:58 AM 52.5°F 52.3°F 99% 29.99 in 5.0 miles SE 2.3 mph - 0.00 in Rain Light Rain
3:06 AM 51.8°F 51.8°F 100% 29.98 in 6.0 miles SE 3.5 mph - N/A   Overcast
3:16 AM 51.8°F 51.8°F 100% 29.99 in 6.0 miles South 3.5 mph - N/A Rain Light Rain
3:21 AM 51.8°F 51.8°F 100% 29.99 in 6.0 miles South 3.5 mph - N/A   Light Drizzle
3:26 AM 51.8°F 51.8°F 100% 29.99 in 7.0 miles South 2.3 mph - N/A   Overcast
3:58 AM 52.5°F 52.3°F 99% 30.01 in 10.0 miles SE 4.6 mph - 0.00 in   Overcast
4:58 AM 52.7°F 52.5°F 99% 30.01 in 10.0 miles SE 2.3 mph - N/A   Overcast
5:58 AM 52.5°F 52.3°F 99% 30.03 in 10.0 miles SE 2.3 mph - N/A   Overcast
6:58 AM 52.5°F 52.3°F 99% 30.01 in 10.0 miles SSW 2.3 mph - N/A   Overcast
7:28 AM 51.8°F 51.8°F 100% 30.01 in 10.0 miles South 2.3 mph - N/A   Overcast
7:58 AM 52.2°F 52.0°F 99% 30.04 in 10.0 miles South 3.5 mph - 0.01 in   Overcast
8:58 AM 53.8°F 53.4°F 99% 30.04 in 10.0 miles South 8.1 mph - N/A   Overcast
9:38 AM 55.4°F 53.6°F 94% 30.03 in 10.0 miles South 9.2 mph - N/A   Overcast
9:43 AM 55.4°F 53.6°F 94% 30.04 in 10.0 miles SSW 8.1 mph - N/A   Overcast
9:53 AM 55.4°F 53.6°F 94% 30.04 in 10.0 miles South 8.1 mph - N/A   Overcast
9:58 AM 55.0°F 53.6°F 95% 30.05 in 10.0 miles South 6.9 mph - N/A   Overcast
10:08 AM 55.4°F 53.6°F 94% 30.04 in 10.0 miles South 5.8 mph - N/A   Overcast
10:58 AM 56.7°F 54.7°F 93% 30.06 in 10.0 miles SSW 5.8 mph - N/A   Overcast
11:58 AM 57.7°F 55.4°F 92% 30.06 in 10.0 miles South 6.9 mph - N/A   Overcast
12:58 PM 59.9°F 55.2°F 84% 30.07 in 10.0 miles South 13.8 mph 20.7 mph N/A   Overcast
1:58 PM 60.4°F 54.3°F 80% 30.07 in 10.0 miles South 13.8 mph - N/A   Overcast
2:58 PM 60.8°F 53.6°F 77% 30.08 in 10.0 miles South 13.8 mph - N/A   Mostly Cloudy
3:33 PM 60.8°F 53.6°F 77% 30.08 in 10.0 miles SSW 18.4 mph - N/A   Overcast
3:45 PM 59.0°F 53.6°F 82% 30.09 in 10.0 miles SSW 15.0 mph 23.0 mph N/A   Light Drizzle
3:54 PM 59.0°F 53.6°F 82% 30.09 in 10.0 miles SSW 12.7 mph - N/A   Overcast
3:58 PM 59.5°F 54.0°F 82% 30.10 in 10.0 miles SSW 12.7 mph - 0.00 in   Overcast
4:11 PM 59.0°F 53.6°F 82% 30.10 in 10.0 miles SSW 12.7 mph - N/A   Overcast
4:14 PM 59.0°F 55.4°F 88% 30.11 in 9.0 miles SSW 10.4 mph - N/A Rain Light Rain
4:22 PM 59.0°F 55.4°F 88% 30.11 in 10.0 miles South 11.5 mph - N/A   Overcast
4:42 PM 59.0°F 55.4°F 88% 30.12 in 10.0 miles South 9.2 mph - N/A   Overcast
4:58 PM 58.5°F 55.0°F 88% 30.13 in 10.0 miles SSW 10.4 mph - 0.00 in   Overcast
5:58 PM 58.1°F 54.9°F 89% 30.15 in 10.0 miles South 9.2 mph - N/A   Overcast
6:00 PM 57.2°F 55.4°F 94% 30.14 in 10.0 miles South 9.2 mph - N/A Rain Light Rain
6:16 PM 57.2°F 55.4°F 94% 30.14 in 10.0 miles South 9.2 mph - N/A   Overcast
6:42 PM 57.2°F 55.4°F 94% 30.16 in 10.0 miles SSW 8.1 mph - N/A Rain Light Rain
6:52 PM 57.2°F 55.4°F 94% 30.16 in 10.0 miles SW 8.1 mph - N/A   Mostly Cloudy
6:58 PM 57.2°F 55.4°F 94% 30.17 in 10.0 miles SW 6.9 mph - 0.00 in   Overcast
7:04 PM 57.2°F 55.4°F 94% 30.16 in 10.0 miles SSW 8.1 mph - N/A   Light Drizzle
7:43 PM 57.2°F 55.4°F 94% 30.16 in 10.0 miles SSW 5.8 mph - N/A   Overcast
7:58 PM 55.9°F 55.2°F 97% 30.17 in 10.0 miles South 6.9 mph - 0.01 in   Mostly Cloudy
8:58 PM 56.1°F 55.4°F 97% 30.17 in 10.0 miles SSW 4.6 mph - N/A   Overcast
9:58 PM 54.7°F 54.3°F 99% 30.17 in 10.0 miles SSE 3.5 mph - N/A   Overcast
10:58 PM 54.7°F 54.5°F 99% 30.18 in 10.0 miles ESE 2.3 mph - N/A   Overcast
11:58 PM 54.3°F 54.0°F 99% 30.20 in 10.0 miles ESE 2.3 mph - N/A   Overcast
Moon Phase
Nov. 03 Nov. 06 Nov. 13 Nov. 20 Nov. 28
Sunrise:07:56 AM (PDT) Moon Rise:09:29 PM (PDT)11/3
Sunset:05:49 PM (PDT) Moon Set:12:11 PM (PDT)11/3

Copyright © 2014 The Weather Underground, Inc.